{"data":{"norad_id":40109,"epoch":"2026-05-25T04:06:53.140896Z","epoch_age_seconds":63298,"freshness":"FRESH","line1":"1 40109U 14047A   26145.17144839  .00000008  00000+0  10599-3 0  9999","line2":"2 40109  63.3790  78.4881 0388248  14.5473 346.6359 13.45439564579345","mean_motion":13.45439564,"eccentricity":0.0388248,"inclination_deg":63.379,"raan_deg":78.4881,"arg_perigee_deg":14.5473,"mean_anomaly_deg":346.6359,"bstar":0.00010599,"rev_number":57934,"period_min":107.02821877178,"perigee_km":799.17130167381,"apogee_km":1378.9980790414,"semimajor_km":7467.2216903576,"source":"CELESTRAK","updated_at":"2026-05-25T13:37:55.471392Z"}}